EW7909 Weather Reports


time (UTC)temp
C
wind
direction
speed
KPH
gust
KPH
rain 1hr
cm
rain 24hr
cm
rain mn
cm
humidity
%
barometer
mb
20260505151510 15 217 9.7 29.0 0.00 0.64 0.61 50 1006.6
20260505150104 15 217 14.5 27.4 0.00 0.64 0.61 46 1006.7
20260505140127 14 239 8.0 14.5 0.00 0.89 0.61 1 1006.8
20260505130128 13 250 16.1 22.5 0.08 0.94 0.61 36 1006.9
20260505124548 14 259 17.7 27.4 0.05 0.89 0.56 56 1006.9
20260505123002 15 225 20.9 29.0 0.00 0.86 0.51 44 1006.7
20260505121554 15 242 8.0 16.1 0.00 0.86 0.51 51 1006.7
20260505120038 15 264 3.2 9.7 0.00 0.86 0.51 50 1006.7
20260505114610 15 275 1.6 9.7 0.00 0.86 0.51 46 1006.8
20260505113040 15 269 3.2 11.3 0.00 0.86 0.51 44 1006.8
20260505111628 15 290 4.8 11.3 0.00 0.86 0.51 54 1006.9
20260505101522 13 257 4.8 11.3 0.03 0.86 0.51 1 1007.1
20260505100105 13 223 8.0 16.1 0.03 0.86 0.51 1 1007.0
20260505094519 13 265 3.2 9.7 0.03 0.86 0.51 1 1007.1
20260505093112 12 273 3.2 6.4 0.03 0.86 0.51 1 1007.1
20260505091530 12 107 0.0 0.0 0.00 0.84 0.51 1 1007.0
20260505090115 12 107 1.6 4.8 0.00 0.84 0.51 1 1007.0
20260505084528 12 107 0.0 0.0 0.00 0.84 0.51 1 1007.0
20260505083119 12 107 0.0 4.8 0.00 0.84 0.51 1 1007.0
20260505081538 12 107 1.6 4.8 0.00 0.84 0.51 1 1006.9
20260505080119 11 107 1.6 4.8 0.00 0.84 0.51 1 1007.0
20260505074605 11 107 3.2 6.4 0.03 0.84 0.51 1 1007.0
20260505073030 11 246 1.6 4.8 0.03 0.84 0.51 1 1007.3
20260505071610 11 246 1.6 3.2 0.05 0.84 0.51 1 1007.4
20260505070024 11 246 0.0 0.0 0.10 0.84 0.51 1 1007.6
20260505064619 11 246 0.0 0.0 0.15 0.81 0.48 1 1007.8
20260505063030 10 246 0.0 0.0 0.23 0.81 0.48 1 1008.0
20260505061621 10 246 0.0 0.0 0.30 0.79 0.46 1 1008.2
20260505060041 10 246 0.0 0.0 0.33 0.71 0.41 1 1008.2
20260505054609 10 246 0.0 0.0 0.23 0.66 0.33 1 1008.3
20260505053059 10 246 0.0 0.0 0.15 0.58 0.23 1 1008.3
20260505051542 10 246 0.0 0.0 0.08 0.51 0.15 1 1008.3
20260505041526 10 246 0.0 0.0 0.03 0.43 0.08 1 1008.4
20260505040022 10 246 0.0 0.0 0.05 0.43 0.08 1 1008.3
20260505034517 10 246 0.0 0.0 0.05 0.43 0.08 1 1008.2
20260505033013 10 246 0.0 0.0 0.03 0.41 0.05 1 1008.4
20260505031524 10 246 0.0 0.0 0.05 0.41 0.05 1 1008.4
20260505030004 10 246 0.0 0.0 0.05 0.38 0.05 1 1008.5
20260505024601 10 246 0.0 3.2 0.05 0.38 0.05 1 1008.5
20260505023116 10 246 3.2 6.4 0.05 0.38 0.05 1 1008.7
20260505021550 10 250 3.2 4.8 0.00 0.33 0.00 1 1009.0
20260505020047 10 250 0.0 0.0 0.00 0.33 0.00 1 1008.9
20260505014542 10 250 0.0 1.6 0.00 0.33 0.00 1 1008.7
20260505013037 10 250 1.6 3.2 0.00 0.33 0.00 1 1008.8
20260505011535 10 250 0.0 0.0 0.00 0.33 0.00 1 1008.8
20260505010028 10 250 0.0 0.0 0.00 0.33 0.00 1 1009.0
20260505004541 10 250 0.0 0.0 0.00 0.33 0.00 1 1009.1
20260505003018 10 250 0.0 0.0 0.00 0.33 0.00 1 1009.3
20260505001515 10 250 0.0 0.0 0.00 0.33 0.00 1 1009.7
20260505000016 10 250 0.0 0.0 0.00 0.33 0.00 1 1009.6
20260504234505 10 250 0.0 0.0 0.00 0.33 0.00 1 1009.9
20260504233001 10 250 0.0 0.0 0.00 0.33 0.00 1 1009.9
20260504231557 9 250 0.0 0.0 0.00 0.33 0.00 1 1009.9
20260504230105 10 250 0.0 0.0 0.00 0.33 0.00 1 1010.2
20260504224549 9 250 0.0 0.0 0.00 0.33 0.00 1 1010.2
20260504223045 9 250 0.0 0.0 0.00 0.33 0.00 1 1010.5
20260504221553 9 250 0.0 0.0 0.00 0.33 0.00 1 1010.4
20260504220037 10 250 0.0 0.0 0.00 0.33 0.00 1 1010.4
20260504214535 10 250 0.0 0.0 0.00 0.33 0.33 1 1010.5
20260504213031 10 250 0.0 0.0 0.00 0.33 0.33 1 1010.6
20260504211524 10 250 0.0 0.0 0.00 0.33 0.33 1 1010.6
20260504210023 10 250 0.0 0.0 0.00 0.33 0.33 1 1010.8
20260504204516 10 250 0.0 0.0 0.00 0.33 0.33 1 1010.9
20260504203013 11 250 0.0 0.0 0.00 0.33 0.33 1 1011.0
20260504201634 11 250 0.0 0.0 0.00 0.33 0.33 1 1010.8
20260504200053 11 250 0.0 0.0 0.00 0.33 0.33 1 1011.0
20260504194514 12 250 0.0 0.0 0.00 0.33 0.33 1 1011.2
20260504193101 12 250 0.0 0.0 0.00 0.33 0.33 1 1011.0
20260504191517 12 250 0.0 0.0 0.00 0.33 0.33 1 1010.9
20260504190126 12 250 0.0 0.0 0.00 0.33 0.33 1 1010.9
20260504184522 13 250 0.0 0.0 0.00 0.33 0.33 1 1011.0
20260504183110 13 250 0.0 0.0 0.00 0.33 0.33 1 1010.9
20260504181529 13 250 0.0 0.0 0.00 0.33 0.33 7 1011.0
20260504180119 13 250 0.0 0.0 0.00 0.33 0.33 22 1011.0
20260504174537 14 250 0.0 0.0 0.00 0.33 0.33 17 1011.0
20260504173123 13 250 0.0 3.2 0.00 0.33 0.33 33 1011.1
20260504171534 13 252 3.2 16.1 0.00 0.33 0.33 39 1011.1
20260504170124 13 250 8.0 12.9 0.00 0.33 0.33 24 1011.3